Ciudad Obregon, Mexico

3:52 AM MST on June 27, 2017 (GMT -0700)
Ciudad Obregon International

Weather History for MMCN - November, 2012

Change the Weather History Date:

Sunday, November 4, 2012

  Actual Average Record
Temperature  
Mean Temperature 76 °F -  
Max Temperature 93 °F 88 °F 96 °F (2001)
Min Temperature 60 °F 61 °F 50 °F (2004)
Cooling Degree Days 12    
Growing Degree Days 26 (Base 50)    
Moisture  
Dew Point 48 °F    
Average Humidity 36    
Maximum Humidity 77    
Minimum Humidity 14    
Precipitation  
Precipitation 0.00 in - - ()
Sea Level Pressure  
Sea Level Pressure 29.90 in    
Wind  
Wind Speed 6 mph ()    
Max Wind Speed 16 mph    
Max Gust Speed -    
Visibility 9.8 miles    
Events      
Averages and records for this station are not official NWS values.
T = Trace of Precipitation, MM = Missing Value Source: Averaged Metar Reports

Daily Weather History Graph

Daily Weather History Graph

Search for Another Location

Airport or City:

Trip Planner

Search our weather history database for the weather conditions in past years. The results will help you decide how hot, cold, wet, or windy it might be!

Date:

Astronomy

Nov. 04, 2012 Rise Set
Actual Time 6:32 AM MST 5:33 PM MST
Civil Twilight 6:07 AM MST 5:57 PM MST
Nautical Twilight 5:40 AM MST 6:25 PM MST
Astronomical Twilight 5:12 AM MST 6:52 PM MST
Moon 10:18 PM MST (11/4) 11:12 AM MST (11/4)
Length of Visible Light 11h 49m
Length of Day
11h 01m
Waning Gibbous, 71% of the Moon is Illuminated
Nov 4
Waning Gibbous
Nov 6
Last Quarter
Nov 13
New
Nov 20
First Quarter
Nov 28
Full

Hourly Weather History & Observations

Time (MST) Temp. Dew Point Humidity Pressure Visibility Wind Dir Wind Speed Gust Speed Precip Events Conditions
4:41 AM 60.8 °F 53.6 °F 77% 29.90 in 10.0 mi NNW 3.5 mph - N/A   Clear
4:50 AM 65 °F 55 °F 62% 29.92 in 3 mi NNW 8.9 mph - -  
5:40 AM 62.6 °F 50.0 °F 63% 29.90 in 10.0 mi NNW 4.6 mph - N/A   Clear
6:45 AM 62.6 °F 50.0 °F 63% 29.91 in 10.0 mi NW 4.6 mph - N/A   Clear
7:41 AM 68.0 °F 51.8 °F 56% 29.93 in 10.0 mi Calm Calm - N/A   Clear
7:50 AM 70 °F 53 °F 43% 29.95 in 12 mi North 8.9 mph - -  
8:41 AM 78.8 °F 50.0 °F 36% 29.94 in 10.0 mi NNW 4.6 mph - N/A   Clear
9:45 AM 86.0 °F 46.4 °F 25% 29.93 in 10.0 mi NNW 8.1 mph - N/A   Clear
10:45 AM 89.6 °F 41.0 °F 18% 29.92 in 10.0 mi NW 4.6 mph - N/A   Clear
10:50 AM 88 °F 49 °F 16% 29.94 in 12 mi NW 15.7 mph - -  
11:49 AM 89.6 °F 41.0 °F 18% 29.90 in 10.0 mi West 9.2 mph - N/A   Clear
12:43 PM 91.4 °F 42.8 °F 18% 29.87 in 10.0 mi NNW 5.8 mph - N/A   Clear
1:42 PM 93.2 °F 41.0 °F 16% 29.85 in 10.0 mi NNW 6.9 mph - N/A   Clear
2:41 PM 93.2 °F 37.4 °F 14% 29.84 in 10.0 mi WSW 5.8 mph - N/A   Clear
3:41 PM 91.4 °F 42.8 °F 18% 29.84 in 10.0 mi West 15.0 mph - N/A   Clear
4:41 PM 87.8 °F 48.2 °F 25% 29.85 in 10.0 mi WNW 15.0 mph - N/A   Clear
5:42 PM 82.4 °F 50.0 °F 32% 29.87 in 10.0 mi West 5.8 mph - N/A   Clear
6:40 PM 78.8 °F 50.0 °F 36% 29.89 in 10.0 mi NNW 2.3 mph - N/A   Clear
7:41 PM 75.2 °F 51.8 °F 44% 29.90 in 10.0 mi WNW 5.8 mph - N/A   Clear